Theta_e
291 292 291 290 291 289 289 288 289 289 289 289 290 290 290 291 291 290 292 292 292 292 292 292 291 292 292 292 293 295 295 296 296 298 299 300 299 301 303 302 305 309 312 314 314 315 317 319 319 319 321 320 320 320 321 320 320 319 317 316 315 313 313 315 315 316 313 311 311 309 308 309 308 310 311 311 311 312 314 315 315 316 316 317 318
291 289 291 288 287 289 289 288 289 288 288 289 289 289 290 290 290 291 291 292 292 292 292 292 292 292 291 292 293 294 295 295 295 296 297 299 299 301 300 300 303 306 309 312 313 313 314 316 318 318 319 318 319 319 320 317 318 318 316 315 316 313 313 315 315 315 311 308 305 303 304 306 305 307 308 310 310 310 313 315 315 316 316 317 316
286 287 288 286 288 288 287 287 287 287 288 288 289 289 290 290 290 291 291 291 291 292 292 292 292 292 292 292 292 293 295 297 296 296 297 297 298 299 299 299 301 303 307 309 311 313 313 314 316 318 319 317 317 318 318 316 318 317 316 315 314 314 313 316 315 315 310 310 308 305 302 303 302 303 303 303 307 308 311 314 314 315 315 315 316
284 285 284 285 286 286 286 287 287 288 288 288 289 289 290 290 290 291 291 291 291 291 292 292 292 292 292 293 293 293 293 295 296 296 296 296 296 297 298 299 301 302 304 307 310 312 312 312 313 317 317 317 317 317 317 316 317 317 316 315 315 311 312 313 316 315 313 309 303 304 304 305 300 300 303 301 301 306 309 313 314 315 314 312 313
284 285 284 285 285 285 286 287 287 287 288 288 289 289 290 290 290 290 291 291 291 291 291 291 291 291 291 292 292 292 292 292 292 293 294 294 295 296 297 299 300 300 302 305 307 309 309 309 309 311 317 317 316 317 316 316 316 316 316 315 315 313 311 312 313 315 313 313 308 304 300 301 302 303 301 298 300 304 305 308 309 314 313 312 313
285 284 284 284 284 285 286 286 286 287 287 288 289 290 290 290 290 290 290 290 290 291 291 291 290 289 289 288 288 288 288 289 289 290 291 292 294 296 298 299 299 300 302 304 305 306 306 307 307 307 309 316 316 317 317 316 316 315 316 316 315 315 313 311 311 313 314 312 313 312 310 304 301 299 304 297 296 297 298 302 304 310 312 311 313
285 285 284 284 284 285 285 286 286 287 288 289 289 289 290 290 290 290 290 290 291 290 290 290 289 289 288 288 288 288 288 289 290 291 292 293 295 296 297 298 298 299 300 302 304 304 305 305 305 305 306 310 315 316 316 316 316 316 316 316 315 314 314 311 310 311 312 312 312 311 306 305 308 304 303 298 294 296 298 300 303 303 309 311 311
284 284 283 284 284 284 285 286 286 287 288 289 289 289 289 289 289 289 289 289 289 290 289 289 288 287 287 287 288 288 288 288 290 291 292 293 294 295 296 296 298 299 299 300 302 303 303 304 304 304 304 304 309 315 316 317 317 317 316 317 316 315 313 312 311 311 309 309 311 308 305 306 307 308 309 303 301 297 296 296 298 300 303 309 311
283 283 283 284 284 285 285 286 287 288 288 288 288 289 289 289 289 289 288 288 288 289 289 287 287 286 285 286 286 288 288 289 290 291 291 292 292 294 295 296 297 298 299 300 301 302 302 303 303 303 303 303 302 309 316 316 316 316 315 315 315 315 314 313 312 311 311 310 309 303 306 305 306 303 298 300 302 299 295 298 298 297 300 303 307
284 283 284 284 285 285 286 287 287 287 288 289 289 289 289 288 288 288 287 287 288 287 286 285 284 285 285 285 285 286 288 288 289 289 290 291 290 292 294 294 294 296 298 299 299 300 301 302 302 302 302 302 300 302 310 316 316 316 315 315 315 314 314 313 312 312 312 312 311 307 305 304 304 300 299 300 299 303 298 297 299 298 299 298 296
283 283 284 284 285 286 286 286 286 287 288 288 288 288 288 288 287 286 286 287 286 285 284 283 284 284 282 282 282 282 283 286 287 288 289 290 290 291 293 293 293 295 297 297 298 299 299 300 301 301 302 300 300 302 303 313 316 316 316 315 315 314 313 312 311 312 312 311 310 308 307 306 304 302 302 301 300 294 296 299 300 301 303 297 296
283 283 284 284 285 285 286 285 286 286 287 287 287 288 287 287 286 285 285 285 284 284 283 283 283 282 282 281 281 282 283 284 283 283 285 287 289 290 292 293 293 293 295 296 295 297 298 299 299 300 300 301 300 301 302 306 315 316 316 315 314 315 314 312 312 311 310 311 309 308 308 308 306 305 304 303 302 300 301 299 299 299 298 294 293
283 283 283 284 284 284 285 285 285 285 286 286 286 286 286 285 285 284 283 283 283 282 282 282 282 281 281 281 281 282 283 283 283 284 285 285 286 288 291 292 291 291 292 293 294 295 297 297 297 298 299 300 300 301 301 302 311 315 315 314 314 314 313 312 311 311 311 310 309 308 309 308 307 307 307 305 303 302 301 297 298 302 298 293 292
282 283 283 283 284 284 285 285 285 285 286 286 286 285 285 284 284 283 282 282 282 281 281 280 281 281 281 281 281 281 281 282 282 283 284 285 286 287 291 292 291 292 292 292 294 295 296 297 297 298 299 299 300 300 301 302 304 314 314 313 313 314 313 312 312 311 311 311 309 307 308 308 308 308 307 305 302 301 299 299 298 297 298 294 292
281 282 283 283 284 284 284 284 284 285 285 285 285 284 284 283 283 282 281 281 281 280 280 279 279 279 280 281 281 280 280 280 281 282 284 285 287 289 291 294 292 292 293 293 294 295 296 297 297 297 297 298 299 300 300 301 303 308 313 313 312 313 312 312 311 311 310 309 307 307 307 307 308 308 307 305 304 303 302 301 300 295 293 293 293
282 282 283 283 284 284 284 284 285 285 285 284 284 284 283 282 282 281 280 279 279 279 278 278 278 278 279 279 279 280 280 279 279 280 280 281 283 285 287 289 293 292 292 293 294 295 295 295 296 296 296 297 298 298 299 300 301 305 312 312 312 312 312 311 311 310 310 309 307 306 305 306 308 308 308 306 305 305 304 304 303 300 295 290 294
281 282 282 283 283 284 284 284 284 284 284 284 283 283 282 281 280 280 279 279 278 278 278 277 277 277 277 278 278 278 278 277 277 278 279 281 282 284 286 288 292 294 293 293 293 294 295 295 295 295 295 295 296 297 298 299 301 303 310 311 311 312 311 310 310 309 310 309 307 305 305 306 307 308 307 306 305 305 305 305 305 303 301 296 292
282 282 282 283 283 283 284 284 284 284 283 283 283 282 282 281 280 279 278 278 278 278 277 277 276 276 276 276 277 277 277 277 277 278 278 279 281 283 285 288 288 290 293 294 293 293 293 292 293 293 293 294 295 296 297 299 300 302 307 310 311 311 310 310 310 309 309 309 307 305 305 305 306 307 306 306 305 305 305 305 305 305 304 300 297
281 282 282 282 283 283 283 283 283 283 283 283 282 282 281 280 279 279 278 278 277 277 276 276 275 275 275 275 275 276 276 276 277 277 278 278 280 283 284 285 286 289 291 292 292 292 291 291 291 292 293 293 294 295 296 297 300 301 305 310 311 310 310 309 310 309 308 308 306 304 304 304 305 306 306 305 304 304 305 305 304 304 298 303 301
281 281 282 283 283 282 282 281 281 282 282 282 281 280 279 279 278 278 278 277 277 276 275 274 274 274 274 274 275 275 275 275 276 276 276 277 279 280 282 283 286 288 289 291 291 291 290 290 290 291 292 292 293 294 295 296 298 300 303 309 310 310 309 309 309 309 308 308 306 304 303 303 303 304 304 304 304 304 305 304 304 302 301 298 301
281 282 282 282 282 282 281 281 281 281 281 281 280 279 279 278 278 278 276 276 275 275 275 274 274 274 273 273 273 274 274 274 275 275 276 276 277 279 280 281 284 285 287 287 290 291 291 290 290 290 291 291 292 292 294 295 297 299 301 307 309 309 308 307 307 307 307 307 306 305 303 303 303 302 303 303 303 303 304 304 304 303 301 298 299
281 281 281 281 281 282 282 281 281 281 280 279 279 279 278 278 278 278 277 276 275 275 275 274 274 274 273 273 273 273 273 274 274 274 275 275 276 278 279 280 280 282 283 284 284 288 291 290 290 290 291 291 291 292 293 294 295 297 299 304 309 308 308 308 307 306 306 307 306 304 302 302 302 303 301 301 302 302 303 303 303 302 301 299 299
281 281 281 281 281 281 281 281 280 279 279 278 278 278 278 277 277 277 277 276 275 275 275 274 273 273 272 272 272 272 272 273 273 274 274 275 276 277 278 278 279 280 281 282 283 285 288 290 290 290 290 290 291 291 292 293 294 295 298 301 307 309 308 307 306 306 306 306 305 303 302 301 302 301 300 300 300 302 303 303 302 302 301 299 298
281 280 281 281 280 280 280 280 280 279 279 278 278 278 277 277 276 276 276 276 275 274 274 274 273 272 272 272 272 272 272 272 272 273 274 275 276 276 277 278 279 280 280 281 283 284 286 289 289 289 289 289 290 290 291 292 293 295 297 300 305 308 309 308 307 307 306 306 304 303 301 301 300 300 299 299 299 301 302 302 302 301 301 299 298
280 280 280 280 279 279 279 279 279 279 278 278 277 277 276 275 275 275 275 276 275 274 273 273 272 271 271 271 271 271 271 271 272 272 273 274 275 276 277 277 278 278 279 280 281 283 285 287 289 289 289 289 289 290 290 291 292 294 296 299 303 307 308 307 307 307 304 306 305 303 302 300 300 299 298 298 299 299 300 301 301 301 301 300 298
279 279 279 279 279 279 279 278 278 278 278 277 277 276 275 275 275 275 275 274 274 273 273 272 272 271 271 271 271 271 271 271 271 272 273 273 274 275 276 277 278 278 278 278 279 280 282 284 288 289 289 288 289 289 289 290 291 293 295 297 300 306 308 308 307 306 306 306 305 304 302 301 300 299 298 299 299 298 299 299 300 300 300 299 297
279 279 279 279 279 278 278 278 278 277 277 276 276 275 275 274 274 274 274 274 273 272 272 272 271 271 271 271 271 271 271 271 271 271 272 273 273 274 274 275 276 277 277 277 277 278 280 283 286 288 288 288 288 289 289 289 290 291 293 295 298 303 307 308 307 307 306 306 306 305 303 302 301 301 299 299 299 298 298 298 299 299 299 298 295
279 279 278 278 278 278 277 277 277 276 276 276 275 275 274 273 273 273 274 274 273 272 271 271 271 271 270 270 270 271 271 271 271 271 272 272 272 273 273 275 276 276 276 276 277 277 278 281 284 287 288 288 288 288 288 289 289 290 292 294 297 301 305 307 306 307 306 306 306 306 304 303 303 302 301 300 300 298 298 297 298 298 297 295 293
278 278 278 277 277 277 276 276 276 275 275 274 274 273 273 273 273 272 273 273 273 272 271 271 270 270 270 270 271 271 271 271 271 271 271 271 271 272 273 274 275 276 276 276 277 277 277 278 281 285 287 287 288 288 288 288 289 290 292 294 296 299 304 305 306 306 306 306 306 306 305 305 302 299 297 298 299 298 298 295 296 296 294 294 292
277 277 277 277 276 276 276 275 275 274 274 273 273 272 272 272 271 271 271 272 272 271 271 270 269 270 270 270 270 270 270 270 270 270 270 271 271 272 273 273 274 275 275 276 276 277 277 278 279 280 283 285 287 288 288 289 290 289 290 292 294 297 302 305 304 304 304 305 305 306 305 299 297 296 295 296 297 297 297 298 296 295 293 293 292
277 277 276 276 276 275 275 274 274 273 273 272 272 272 271 271 271 270 270 271 271 270 269 269 269 269 269 269 269 269 269 269 269 269 270 271 271 271 272 272 273 274 275 276 277 276 277 278 279 279 281 282 285 287 289 290 291 291 291 291 292 294 299 304 304 303 303 303 304 305 306 299 297 296 296 296 297 297 296 296 295 295 294 293 292
277 276 276 275 275 274 274 273 273 272 272 271 271 271 270 270 270 269 270 270 270 269 268 268 268 268 269 268 268 268 268 268 268 269 269 270 271 271 271 271 272 273 275 276 277 276 277 277 278 279 280 282 284 287 289 290 291 291 291 290 292 293 296 303 304 304 304 303 304 305 305 304 302 300 300 298 297 296 296 295 295 294 294 295 295
276 275 275 275 274 274 273 273 272 272 271 271 271 270 269 269 269 269 269 269 269 268 268 268 268 268 268 268 268 268 267 267 268 268 269 269 270 270 270 271 271 273 274 275 275 276 277 277 278 278 279 281 283 287 289 290 291 291 292 291 291 293 295 299 303 304 304 303 303 303 303 304 303 296 297 300 299 297 295 295 294 294 294 295 295
276 275 275 274 274 273 273 272 272 271 271 271 270 269 269 269 268 268 268 268 267 267 267 267 267 267 267 267 267 267 267 267 267 267 268 268 269 269 269 270 270 270 271 274 276 276 277 277 277 278 279 281 283 286 288 290 290 291 291 291 291 292 294 298 302 303 304 303 303 302 302 302 302 298 299 300 299 298 295 294 294 294 293 293 294
275 274 274 273 273 272 272 271 271 270 270 269 269 268 268 267 267 266 267 267 267 267 267 267 266 267 267 266 266 266 265 266 266 267 267 267 267 267 268 269 269 269 270 273 276 276 277 277 278 278 279 280 282 286 288 289 290 291 291 291 291 292 294 297 302 303 303 303 303 304 302 302 301 299 299 299 299 297 294 293 292 292 292 293 293
274 273 273 272 272 271 271 270 270 269 269 268 267 267 266 265 266 265 266 266 266 266 266 266 266 266 266 266 265 265 265 265 265 265 266 266 266 266 267 268 268 269 270 272 275 277 277 277 278 279 280 280 282 285 287 289 290 291 291 290 290 291 293 296 300 301 303 303 303 303 302 301 300 299 297 297 297 296 293 292 292 291 291 292 293
274 273 272 272 272 271 270 270 269 268 267 267 267 266 265 264 264 265 265 265 265 265 265 265 265 265 265 265 264 264 264 264 264 264 265 265 265 266 267 268 268 269 269 271 274 277 277 277 277 278 280 281 282 285 287 288 289 291 291 289 289 290 292 295 299 301 302 302 302 302 302 302 300 299 296 298 298 295 293 292 292 290 290 290 291
273 273 272 271 270 270 270 268 267 267 266 266 265 265 264 263 264 264 264 264 264 264 265 264 264 264 264 264 264 264 263 263 264 264 264 265 266 266 267 268 268 268 269 270 272 275 277 278 278 279 281 282 283 285 287 289 290 291 290 288 289 290 291 294 298 300 302 302 301 297 299 302 300 299 297 298 297 294 293 292 291 290 290 290 290
272 271 270 270 269 269 268 267 266 265 265 265 264 263 263 262 263 263 264 263 263 264 263 263 263 263 263 263 263 263 263 263 263 263 264 264 265 266 267 268 268 268 269 271 273 275 277 279 280 281 282 283 284 286 288 289 290 291 290 289 289 290 291 294 297 298 299 300 300 296 296 299 300 299 297 298 297 295 293 292 292 291 290 290 291
271 270 269 269 269 267 266 265 264 264 265 264 263 263 262 262 263 263 263 263 263 263 263 263 263 263 262 262 263 262 262 262 263 263 264 265 266 266 267 267 268 269 269 271 274 276 277 278 280 281 284 285 285 285 286 289 290 291 291 290 290 290 291 294 296 298 297 298 299 298 296 298 299 298 297 298 297 296 294 293 293 292 291 290 291
269 269 271 267 266 265 264 264 264 264 263 263 263 262 261 262 262 262 262 262 263 263 262 262 261 261 261 261 262 262 262 263 263 264 265 265 266 266 267 267 268 269 270 272 273 275 277 278 279 281 283 286 286 286 287 289 291 291 292 291 290 291 293 295 296 295 297 297 297 298 298 297 298 297 297 297 297 296 296 293 293 294 293 293 292
269 269 268 266 265 264 263 263 263 263 263 262 262 260 261 261 261 261 262 262 262 261 261 261 260 260 260 261 261 262 263 263 264 265 265 266 267 268 268 268 269 269 270 272 274 277 278 279 280 281 284 286 287 288 288 289 290 291 292 292 291 291 294 295 295 296 297 297 297 298 298 297 297 296 296 297 297 297 296 293 294 296 295 294 291
267 266 266 265 263 262 262 262 262 262 262 262 261 260 260 261 260 261 261 261 261 260 260 259 259 259 260 260 261 262 263 264 264 266 267 267 268 269 269 270 270 270 271 272 275 278 279 281 283 285 286 286 287 287 288 288 290 291 292 292 293 293 295 295 296 295 296 297 297 298 297 295 296 295 296 297 297 297 295 295 296 296 295 294 292
266 265 264 263 262 262 261 261 261 261 261 261 260 259 259 259 259 261 261 260 259 259 259 258 259 259 260 260 261 262 263 265 267 268 269 270 270 271 271 272 272 273 274 276 278 280 281 282 283 283 285 286 287 288 289 289 289 291 292 293 294 294 296 295 296 296 296 297 296 296 295 295 295 295 295 296 296 296 294 296 296 295 294 292 292
265 263 263 262 261 260 260 260 260 260 261 260 260 259 259 258 259 260 259 259 258 258 257 257 258 259 260 260 261 262 264 266 267 268 267 268 270 273 273 275 276 277 278 280 281 281 281 282 283 284 285 286 288 288 289 290 290 290 292 293 294 295 296 296 295 296 295 297 296 295 295 294 294 295 295 295 295 294 295 295 294 294 292 292 291
263 262 262 261 260 259 258 258 259 260 260 260 260 259 258 258 259 259 258 258 257 257 257 257 258 259 260 261 261 263 265 266 266 267 267 268 269 270 272 276 280 282 282 282 282 282 283 284 284 285 286 287 288 289 289 290 289 290 290 292 294 294 295 295 295 295 294 295 295 294 294 293 294 293 293 294 293 293 293 293 293 292 292 292 291
261 261 261 260 259 258 257 257 257 259 259 259 259 259 259 259 258 258 258 257 256 256 256 257 258 259 260 261 262 263 264 265 265 266 267 267 268 269 271 273 276 279 282 283 283 283 283 284 284 285 286 287 287 288 289 290 290 290 290 291 293 294 294 294 294 293 293 294 293 293 293 293 293 293 292 292 293 292 292 292 292 292 292 292 291
261 261 260 258 258 257 257 257 257 258 259 258 258 258 258 258 258 257 257 256 256 256 256 257 258 260 261 262 263 264 264 264 264 265 265 266 267 268 269 271 273 275 278 279 281 283 284 284 284 285 286 286 287 288 289 289 289 289 290 292 293 293 294 294 294 294 294 293 293 292 292 292 292 292 292 291 292 291 291 291 291 292 292 292 290
260 260 259 258 257 257 257 257 257 258 258 257 257 257 257 257 257 256 256 255 255 256 256 257 259 260 260 262 263 263 263 263 263 264 265 266 266 267 269 272 275 278 278 278 280 282 285 286 286 286 286 286 287 288 288 290 289 290 290 291 292 293 294 295 294 294 292 292 292 292 291 291 291 291 290 290 290 290 290 291 290 291 291 291 291
260 260 258 257 257 256 256 256 257 257 257 256 256 256 256 256 256 256 256 255 255 256 256 257 259 259 260 262 262 262 262 263 263 263 263 264 268 271 271 270 271 275 278 280 281 282 284 286 286 286 287 286 287 288 290 291 291 291 292 293 293 293 294 294 294 294 293 292 292 291 291 291 290 291 290 290 290 290 290 290 290 290 290 290 290
259 258 257 256 256 257 256 256 256 257 256 255 255 255 255 255 255 256 256 255 255 256 257 258 258 259 261 261 261 261 262 262 262 262 262 263 263 265 270 272 273 274 276 278 279 280 281 282 283 285 287 289 290 291 291 291 291 292 292 293 293 293 293 293 294 292 293 292 291 291 290 291 290 291 290 290 290 289 289 289 289 289 290 290 289
Wind_Speed
1 0 3 5 5 6 5 4 5 6 6 8 10 9 10 12 13 13 12 12 11 11 11 12 13 12 11 12 13 11 10 11 10 10 9 8 12 12 11 11 13 14 14 14 14 13 12 14 11 12 11 13 14 14 15 15 15 15 14 14 17 14 11 11 10 12 12 10 8 7 5 4 4 5 6 5 4 4 5 6 5 6 5 7 8
2 2 3 5 5 7 8 6 6 8 7 9 9 10 10 12 12 13 13 12 12 12 13 13 13 12 13 13 13 14 13 11 12 10 9 9 11 11 10 10 12 13 13 13 13 11 12 12 13 9 11 11 13 12 12 13 15 14 14 13 14 19 15 16 14 13 11 13 12 7 5 5 5 4 4 5 5 4 5 7 5 7 7 6 7
2 1 3 6 7 8 7 6 6 6 7 9 9 11 11 11 12 14 13 13 12 13 13 14 14 14 15 15 15 14 13 12 11 12 11 10 10 9 9 11 11 11 12 13 12 12 11 12 12 12 12 10 10 12 14 13 14 16 17 16 13 11 11 13 17 18 15 12 11 11 7 9 1 2 2 1 0 3 5 7 7 7 8 7 8
4 4 4 6 6 7 8 9 8 6 7 7 9 10 10 10 12 14 13 11 14 15 14 15 17 20 19 18 18 16 15 13 13 12 10 10 10 8 9 9 10 11 13 13 12 12 11 11 13 13 10 11 12 14 14 16 15 15 15 17 16 14 12 14 16 16 14 17 14 13 11 10 10 8 8 1 2 3 5 8 8 8 7 6 5
4 3 4 6 6 7 9 10 10 10 9 10 11 11 10 12 13 13 13 15 14 16 18 17 16 16 16 18 16 14 12 11 11 12 11 10 10 9 9 9 10 10 11 13 11 12 10 9 11 14 14 12 9 11 14 16 15 14 17 16 18 17 13 12 13 13 14 18 16 10 6 8 13 10 10 1 1 4 4 4 6 10 9 8 8
3 4 5 6 6 8 10 10 10 10 10 10 10 11 12 13 14 14 15 16 17 18 17 15 16 18 17 16 17 15 15 13 12 12 13 13 12 9 8 8 8 9 10 11 13 11 10 9 8 11 14 13 14 13 12 13 15 14 16 16 18 17 18 15 13 14 16 16 13 16 18 16 13 8 14 7 1 1 1 3 3 7 9 9 9
3 4 4 6 8 10 11 12 11 11 11 10 9 10 13 13 13 16 16 17 17 17 17 15 17 18 20 19 18 18 18 15 13 13 13 12 10 10 9 7 7 9 9 9 11 13 12 10 9 8 12 15 13 13 12 14 16 17 15 16 17 15 16 18 20 17 14 14 12 9 2 3 11 19 14 8 7 0 1 3 5 4 7 11 9
2 4 5 5 7 9 10 11 11 14 14 11 9 11 15 16 16 16 16 19 20 19 16 16 16 17 21 21 18 17 16 18 17 15 14 13 13 13 9 7 6 6 8 8 10 12 12 11 9 8 10 13 13 12 14 14 14 15 18 19 16 14 15 17 18 16 17 16 14 8 3 4 11 14 21 21 17 15 6 3 1 1 3 7 10
3 4 7 8 10 10 10 11 11 13 13 9 14 16 15 14 14 18 22 21 20 22 15 15 19 22 23 20 20 17 16 17 17 16 14 13 14 11 8 7 6 5 7 7 8 11 11 11 9 8 9 12 12 14 14 15 16 16 19 18 18 17 17 16 17 17 17 18 15 7 7 8 11 6 3 4 16 14 8 11 9 2 0 3 7
3 4 6 8 8 11 11 12 12 13 9 12 16 14 13 14 18 20 21 20 20 17 18 23 25 22 18 19 22 21 17 17 17 17 16 14 16 16 12 8 6 5 6 7 6 8 10 10 9 8 8 9 10 14 18 16 17 18 18 19 19 20 15 16 17 18 17 17 19 14 11 10 11 5 6 9 6 19 19 13 12 12 12 5 1
5 7 7 6 7 10 11 12 13 12 10 13 14 14 15 15 17 21 23 20 17 18 19 23 21 16 18 21 24 24 25 22 20 18 15 13 14 14 12 8 7 6 5 6 6 7 8 8 9 9 7 7 10 12 16 16 16 18 19 21 22 22 18 17 17 17 16 16 17 15 16 19 19 19 16 12 13 6 7 15 13 12 13 10 3
6 7 8 8 9 10 10 12 12 12 13 15 14 15 16 19 19 20 21 20 18 19 22 21 17 17 18 20 22 22 21 17 20 21 20 19 16 15 12 8 7 6 5 5 6 6 7 7 7 8 7 7 9 10 13 17 16 16 19 19 19 21 19 19 17 17 19 16 18 14 14 14 13 12 13 14 13 13 16 14 12 7 6 3 2
7 7 7 8 9 11 12 13 12 11 14 15 15 15 18 20 20 20 21 21 20 20 21 23 20 18 17 18 20 19 19 20 20 19 17 15 17 18 14 10 7 6 6 6 6 6 6 6 6 7 8 7 8 11 12 17 19 14 14 22 21 22 20 20 18 20 21 18 19 15 13 13 14 12 13 13 10 10 12 13 9 12 13 6 2
5 5 6 7 9 10 11 13 13 13 13 14 15 18 18 18 19 20 21 21 22 22 22 22 23 21 18 16 17 17 18 19 20 20 19 16 15 17 17 11 8 8 7 7 7 6 5 6 6 6 7 9 9 10 12 14 17 16 13 12 17 20 19 22 20 20 19 19 16 14 14 15 14 13 14 13 14 15 14 18 14 6 9 10 4
4 5 6 8 10 10 11 13 13 12 13 15 16 17 17 17 19 21 21 21 22 23 21 23 20 21 21 17 15 15 16 17 17 18 19 18 16 17 18 14 8 7 8 7 6 6 7 6 6 5 5 8 9 10 12 13 14 19 16 20 16 13 17 20 19 21 20 19 17 16 15 14 15 14 14 14 14 16 16 15 16 15 7 8 8
4 5 8 9 9 10 12 11 11 11 12 15 18 17 17 17 19 22 21 21 21 22 20 19 21 18 21 20 18 16 15 15 16 16 16 18 19 17 16 18 15 8 7 6 7 7 7 7 7 6 5 6 8 10 12 12 14 18 20 18 19 16 18 22 18 20 22 22 19 14 11 14 14 15 15 15 14 15 15 15 16 18 17 10 8
5 6 7 7 10 12 11 11 10 10 14 18 19 18 17 18 20 23 22 19 20 19 17 17 18 20 20 19 17 18 17 17 17 20 21 19 18 17 16 15 17 13 8 6 7 6 7 7 7 7 5 5 7 9 11 12 14 16 15 16 19 18 17 19 16 18 19 18 16 19 16 13 14 15 14 14 13 14 16 16 16 19 19 18 12
6 7 6 8 10 12 13 11 10 11 15 17 18 15 14 16 17 19 19 20 21 21 19 17 18 19 19 18 17 16 18 18 18 19 19 19 19 18 15 12 13 16 15 10 7 8 7 7 7 7 6 5 6 8 10 12 13 13 15 12 14 16 18 17 17 17 17 16 16 15 12 13 13 15 16 15 14 15 15 16 16 14 15 19 17
6 6 7 9 12 12 11 11 10 11 14 15 15 14 14 14 17 17 19 18 18 17 17 17 16 15 15 18 18 18 17 18 17 18 17 18 19 18 17 15 15 14 15 12 8 7 6 6 6 7 7 6 6 7 9 11 12 13 15 15 15 15 14 15 17 18 16 17 17 17 13 12 13 15 15 15 14 14 15 15 13 13 8 14 18
7 7 9 11 11 10 10 9 9 13 14 13 14 12 14 16 19 18 17 17 18 17 17 17 15 14 17 18 18 16 17 18 18 18 17 18 19 18 19 18 15 13 14 16 10 9 7 7 6 7 7 6 6 7 8 11 11 12 14 15 14 17 18 18 17 17 15 17 18 18 16 14 13 13 15 15 15 14 14 14 14 13 12 4 9
7 8 10 12 12 11 10 8 9 11 11 11 11 13 15 16 17 16 17 18 19 19 17 15 14 15 16 17 18 18 19 18 19 18 17 17 18 18 17 16 16 14 13 15 15 12 10 8 7 7 7 7 6 7 7 9 11 13 14 15 15 16 16 14 16 18 17 20 20 19 17 15 15 15 13 14 15 15 15 14 13 13 11 8 9
7 9 10 11 11 12 11 10 11 13 14 13 13 15 16 14 16 17 15 15 16 18 18 18 15 14 16 16 16 16 17 17 18 18 18 17 16 16 16 17 16 16 13 14 15 16 12 10 8 7 7 7 7 7 7 8 10 12 15 14 14 17 17 17 14 16 17 17 19 20 18 16 15 17 16 15 15 16 15 14 14 14 13 11 10
9 9 10 10 10 10 11 14 15 15 15 14 15 16 14 15 19 20 18 16 16 17 17 16 16 16 18 17 16 16 16 19 20 18 18 17 17 16 16 17 17 15 14 12 13 13 15 12 8 7 7 6 7 7 7 8 10 12 14 15 15 18 19 18 19 19 19 18 19 19 19 17 14 15 15 15 14 16 15 16 16 13 14 12 10
9 9 9 10 8 8 12 13 15 14 14 15 15 15 15 17 18 19 21 19 17 16 17 17 17 18 18 18 17 16 18 18 19 18 19 19 17 15 15 17 16 15 15 15 13 13 14 13 10 7 7 7 6 7 8 8 11 12 13 14 15 16 20 21 21 21 20 19 20 19 19 18 18 18 16 14 13 14 15 15 16 14 14 14 12
10 11 12 11 9 11 12 13 14 14 14 14 15 15 17 19 18 18 18 19 17 16 17 18 17 19 19 18 19 17 18 18 19 18 20 19 19 16 14 15 16 15 16 15 15 13 12 14 12 9 7 6 6 6 8 9 10 11 13 13 15 14 14 18 20 21 21 21 21 21 20 19 19 18 16 15 14 16 15 15 16 14 13 13 11
12 13 12 12 11 12 14 14 14 14 14 14 15 16 17 18 19 17 18 19 19 16 17 19 18 18 19 20 18 21 20 19 19 19 19 18 18 17 17 15 15 16 15 14 14 14 11 14 13 9 7 7 6 6 7 8 10 11 12 13 14 14 16 16 16 18 20 20 20 21 20 20 20 20 18 17 16 17 15 15 16 14 13 13 13
12 12 12 12 14 17 16 15 14 14 14 14 15 16 17 18 21 21 18 16 15 16 17 17 19 20 22 20 21 17 18 21 18 17 17 17 17 17 17 18 16 15 14 14 14 14 14 12 14 12 9 8 8 7 7 8 10 11 12 13 14 15 15 16 18 20 20 21 21 20 20 21 22 21 21 19 18 17 15 16 16 16 14 14 13
11 11 11 13 16 16 17 16 16 15 15 15 16 16 17 17 18 19 19 17 15 17 19 20 20 22 18 23 20 19 21 20 19 18 17 17 17 16 16 15 15 16 14 12 12 14 14 13 14 12 10 8 9 9 8 8 9 11 11 12 14 15 15 16 17 19 21 21 21 21 22 22 23 21 21 20 21 18 16 15 14 15 15 15 13
12 11 11 13 15 16 17 17 16 16 17 18 18 18 17 17 18 18 19 19 17 15 18 21 21 20 24 21 21 22 19 19 19 19 19 18 17 16 15 14 15 14 13 12 10 12 14 16 14 13 11 10 10 10 9 7 9 11 11 12 13 15 15 16 17 18 19 20 19 20 20 21 22 23 26 24 23 21 17 16 15 16 15 15 14
11 11 12 13 15 17 16 16 16 17 18 18 19 19 19 19 19 19 19 19 18 19 21 21 20 24 21 21 23 20 20 19 19 19 19 18 17 17 14 15 16 16 17 14 13 12 14 16 15 16 14 13 11 9 11 16 14 11 12 12 12 14 14 15 17 16 16 19 20 19 19 26 26 26 26 27 27 25 23 19 16 15 17 16 16
10 12 12 13 15 16 16 16 17 17 18 18 18 19 19 20 19 19 19 19 19 17 21 21 24 23 20 23 20 21 21 19 20 19 17 17 16 14 14 16 15 16 16 16 14 14 12 13 14 14 14 14 13 12 18 18 18 19 14 12 12 13 15 14 16 17 16 17 17 19 18 22 24 23 23 28 27 27 24 23 23 21 18 18 17
11 12 12 14 15 17 16 16 17 18 18 17 18 20 20 20 20 20 19 20 17 20 22 24 24 21 22 21 20 19 19 20 18 16 15 13 15 14 14 16 15 18 15 14 13 13 14 13 14 15 15 14 13 16 21 21 19 19 16 13 12 12 14 13 16 18 17 17 18 17 16 16 18 20 19 21 24 27 26 24 25 25 24 24 24
12 11 12 13 15 16 16 16 16 16 17 19 19 19 20 19 20 20 19 20 23 20 23 23 20 21 20 22 18 17 17 15 15 15 15 14 15 14 15 13 16 15 15 17 15 15 14 13 14 16 16 15 15 18 22 22 20 19 18 17 12 12 13 14 14 18 18 18 17 16 16 15 16 24 20 19 19 20 24 28 26 26 26 27 26
10 10 11 12 13 14 14 15 15 16 16 17 17 16 18 18 18 20 20 20 17 22 24 20 21 21 20 18 17 18 18 17 15 15 14 16 14 15 14 13 14 16 17 17 17 15 14 14 15 16 16 15 16 18 23 22 19 19 19 17 13 13 13 15 15 16 17 18 19 17 16 16 15 16 16 17 17 18 17 18 18 18 17 22 26
10 11 12 12 13 15 16 17 15 16 16 16 18 17 18 18 18 20 20 19 23 22 17 21 22 19 17 18 20 20 20 20 19 17 14 14 13 16 13 13 13 14 16 18 16 14 13 13 13 14 15 16 14 23 24 23 20 20 20 17 12 13 13 14 14 15 17 18 19 19 18 17 16 16 17 19 18 18 18 18 18 17 16 16 16
8 9 11 13 13 14 16 17 16 16 17 15 17 17 18 20 19 18 19 19 18 20 22 21 18 18 22 21 17 20 20 21 20 20 18 17 16 15 16 14 14 14 15 16 17 15 14 13 14 14 14 16 16 26 25 23 22 20 20 12 11 12 13 14 14 14 16 17 17 18 17 17 17 17 21 27 23 19 20 21 20 17 14 13 14
7 8 10 11 12 12 14 15 17 17 16 16 16 17 18 20 19 18 18 19 19 20 20 21 21 22 20 20 22 21 22 22 22 21 20 20 18 18 17 14 15 14 15 15 17 13 12 13 16 17 18 17 16 21 25 24 23 21 15 11 11 11 12 14 14 14 16 17 17 18 18 17 18 18 23 28 28 24 19 22 20 19 15 14 13
7 8 9 10 10 10 12 13 17 18 16 14 15 17 18 18 18 18 19 18 17 19 21 20 21 21 21 20 21 21 22 22 22 21 21 20 19 17 15 13 14 14 14 15 15 15 15 14 15 16 16 15 16 18 23 22 23 22 18 12 10 11 12 13 13 14 14 15 18 24 21 18 18 19 26 29 29 24 20 21 20 19 18 16 14
6 8 10 10 11 12 14 15 15 17 17 15 17 17 16 18 18 18 17 18 18 18 20 21 23 22 22 21 20 21 21 22 22 22 20 20 19 18 16 14 14 15 16 15 15 14 13 13 13 16 23 22 17 16 21 22 23 22 17 11 11 10 13 13 13 14 13 13 15 19 25 22 20 21 29 29 30 26 21 20 21 20 20 20 17
6 5 6 8 9 11 14 16 17 17 16 17 16 15 17 17 16 18 20 19 20 20 21 22 23 22 21 21 20 21 22 21 23 23 21 19 17 16 16 15 15 14 14 14 13 14 15 13 12 15 14 17 17 15 16 23 22 22 23 14 10 12 13 14 13 13 13 12 14 15 20 27 26 27 29 30 30 31 23 20 18 19 20 22 15
7 8 8 7 7 8 11 14 14 15 15 15 14 16 17 17 18 18 18 19 22 23 23 22 21 22 22 22 20 19 22 22 20 19 19 18 16 15 15 14 15 14 14 14 15 17 15 15 15 15 16 16 14 15 15 21 22 23 24 20 12 14 14 13 13 14 14 14 14 15 15 23 27 28 30 31 32 32 27 21 21 21 22 19 18
4 8 8 9 10 12 13 14 13 13 13 13 14 16 16 17 17 18 20 20 20 21 21 22 23 23 23 22 22 21 19 18 19 18 17 16 14 14 14 14 13 13 15 17 16 15 12 14 14 16 17 15 13 17 14 18 23 24 24 25 16 14 15 13 14 14 14 14 15 14 14 20 27 28 29 31 33 31 30 19 23 26 23 23 20
8 8 6 9 12 13 13 15 14 13 13 14 16 16 17 18 20 22 20 20 21 21 22 22 22 22 21 21 21 22 19 16 16 16 16 15 13 11 13 13 14 14 15 17 17 16 14 15 13 10 8 9 11 12 19 17 21 24 24 24 25 18 21 15 14 15 16 15 13 15 15 23 25 26 29 31 30 33 28 22 28 24 22 27 22
5 5 9 8 11 12 13 12 13 12 12 13 14 17 18 19 20 20 20 20 20 21 20 20 20 19 20 20 19 20 18 15 14 14 15 15 13 11 11 10 12 13 13 14 13 12 11 11 10 9 8 9 10 11 14 21 18 22 22 23 23 24 22 15 15 14 13 13 13 14 15 25 26 27 29 29 29 29 22 26 25 26 25 23 15
7 9 8 7 10 15 15 15 13 13 12 11 12 15 19 21 20 21 21 20 21 22 22 22 23 21 19 17 17 16 15 17 17 16 16 16 17 15 10 10 11 12 13 13 12 10 10 10 10 9 9 8 9 9 10 13 19 19 21 20 21 25 25 23 16 12 12 13 17 22 24 26 26 26 29 29 26 28 29 24 24 24 22 13 14
6 7 7 8 10 11 13 16 16 13 12 11 12 13 18 19 20 20 20 20 21 22 23 24 22 21 22 24 19 17 17 17 19 15 14 13 15 15 15 14 11 10 10 10 11 10 10 9 9 9 9 9 9 8 8 9 10 14 15 19 22 25 26 25 21 15 18 22 23 24 27 28 27 23 19 16 14 18 25 25 25 24 15 15 15
6 7 8 9 10 12 14 15 17 14 12 12 13 12 13 16 18 19 19 20 21 21 21 21 22 21 21 18 17 16 19 18 16 14 13 13 12 13 13 13 12 13 11 10 10 10 10 9 9 9 9 8 8 7 7 7 7 7 7 11 16 18 24 23 17 13 16 15 19 20 17 19 16 22 23 21 20 20 18 15 12 13 13 13 13
5 6 6 7 8 11 13 15 15 15 14 14 13 14 15 17 17 17 19 20 20 20 20 21 23 19 18 16 16 24 22 15 14 15 16 15 13 12 12 12 12 12 13 15 14 11 9 8 8 8 7 7 8 7 6 7 6 6 6 7 10 12 13 13 12 11 13 15 16 17 19 16 15 14 14 10 10 9 10 11 11 12 13 13 15
7 5 5 7 8 10 11 13 13 13 14 14 14 15 16 17 17 18 19 20 21 21 16 20 18 18 17 14 16 16 16 16 15 16 13 13 13 15 14 14 13 11 13 16 15 12 8 7 7 7 7 7 7 7 7 7 6 8 8 8 10 11 12 13 15 18 13 12 12 12 11 12 13 14 13 13 13 13 13 14 17 15 13 12 11
4 5 5 6 8 9 11 13 12 12 13 14 15 14 15 15 16 16 18 18 18 17 19 19 18 15 13 16 16 16 18 16 16 15 19 18 17 18 16 14 15 23 27 28 25 10 7 6 7 6 6 8 7 7 9 9 9 10 12 14 12 13 15 14 17 23 17 12 13 13 14 14 15 14 14 13 13 12 13 13 13 15 14 13 14
5 5 6 7 8 8 9 11 12 12 13 13 14 14 15 16 16 16 16 16 18 16 16 16 14 12 16 17 16 17 18 16 16 17 16 17 19 19 23 25 26 28 25 29 29 30 30 28 18 6 9 11 11 11 9 10 10 11 11 12 15 15 15 13 19 17 14 14 12 13 12 12 13 13 13 13 13 13 14 14 13 13 13 15 15
Wind_Direction
258 39 2 344 317 312 323 334 335 333 335 332 326 325 329 328 325 323 324 319 318 315 314 316 313 307 303 301 299 293 291 292 287 287 286 291 302 301 309 315 313 311 309 310 306 301 281 268 243 218 201 202 209 196 178 176 176 172 169 173 170 168 172 163 171 153 141 133 123 114 85 59 105 141 148 145 155 147 153 149 149 144 152 147 142
351 18 346 342 327 334 346 340 334 337 335 337 329 329 334 332 328 322 318 315 316 317 315 309 305 303 301 301 301 301 295 288 289 283 281 290 290 294 304 307 308 308 308 307 304 300 299 289 269 232 214 202 198 196 184 179 178 174 168 172 180 173 174 172 162 151 159 161 148 130 89 64 48 79 136 166 158 157 162 156 153 152 150 152 143
320 347 334 339 343 342 339 331 334 332 332 334 331 333 330 328 320 314 311 312 317 319 314 310 307 304 302 296 293 290 280 275 273 278 278 278 278 283 295 303 305 306 307 307 306 306 306 302 281 251 220 211 200 192 190 194 184 178 174 173 175 191 169 167 167 175 165 160 144 127 152 144 111 85 22 24 172 176 166 160 160 158 153 152 155
333 344 331 332 340 335 337 343 335 333 333 330 330 321 317 313 313 311 312 317 317 314 311 308 306 303 299 293 284 277 283 279 274 273 271 272 273 277 286 293 300 302 307 307 304 306 310 310 310 281 241 217 202 195 189 189 189 183 182 174 167 167 170 178 183 180 160 150 163 179 166 163 152 187 165 165 334 210 188 162 160 164 153 141 158
312 303 309 332 336 339 350 343 338 336 333 331 325 320 314 314 311 312 318 317 315 311 308 307 307 304 302 298 288 285 279 282 284 281 276 273 275 273 281 292 297 301 303 304 302 300 305 309 310 303 269 227 211 207 193 186 184 186 179 174 174 169 172 172 180 180 179 177 153 128 115 178 195 159 132 28 351 165 200 166 162 165 162 156 156
291 310 322 318 327 347 356 347 338 330 328 323 315 312 316 315 317 323 322 319 313 309 307 312 313 311 308 305 303 296 291 286 282 285 287 284 278 272 270 278 292 297 299 300 299 293 291 294 300 306 306 259 207 207 204 193 184 182 181 180 183 180 166 168 172 186 180 185 186 176 167 170 150 150 157 186 231 304 175 131 184 178 162 158 158
299 293 309 326 340 356 350 343 334 326 318 309 309 317 323 322 325 325 319 315 310 305 308 316 317 310 305 300 296 294 293 287 282 282 282 281 275 275 274 278 285 294 296 294 297 295 290 287 290 300 303 296 245 206 210 198 189 188 188 184 184 182 173 171 174 178 175 192 190 202 36 40 159 150 179 116 140 332 360 165 176 205 177 158 163
282 286 316 334 353 355 340 332 331 322 312 312 326 329 326 322 316 315 317 315 310 305 306 314 313 314 308 302 295 291 291 290 290 286 284 284 280 272 266 265 272 280 290 293 297 297 294 291 292 293 297 299 295 244 210 210 199 195 190 185 181 179 183 178 176 173 174 185 193 180 73 113 162 183 160 163 169 160 194 325 43 83 203 177 165
313 332 340 358 355 342 332 327 323 317 314 323 327 326 322 317 317 318 314 312 312 308 313 323 325 317 305 298 295 290 292 292 292 286 281 281 279 272 256 251 252 258 270 281 288 295 296 294 297 294 290 296 306 290 239 212 209 196 191 190 183 181 181 183 175 179 181 179 175 176 137 140 159 179 194 169 156 159 159 167 160 65 40 208 172
335 338 357 0 348 336 326 318 314 310 311 323 320 321 320 319 316 314 314 317 316 327 332 327 324 314 310 313 312 308 302 292 287 285 283 280 278 276 264 246 231 242 261 274 282 287 294 296 295 286 286 292 300 300 280 229 207 199 194 189 185 183 184 184 185 180 183 180 180 166 151 148 148 154 174 176 173 164 159 179 171 162 169 191 138
349 359 1 348 336 324 317 314 313 314 322 328 324 321 320 319 317 318 317 318 325 325 325 321 316 319 318 314 310 305 304 308 310 297 283 276 277 277 267 243 223 225 245 267 272 283 290 294 292 291 291 291 293 295 295 259 216 205 197 189 189 186 184 185 188 183 178 180 179 174 172 169 172 179 176 176 162 150 141 161 165 174 170 152 179
356 4 349 338 328 319 318 318 322 326 334 331 325 326 326 321 317 318 320 321 321 321 319 313 311 310 311 310 308 306 305 305 304 303 308 307 296 281 269 247 231 221 217 248 263 271 282 290 293 296 296 293 290 294 291 289 258 213 193 192 189 188 186 182 184 183 184 178 180 180 174 171 168 164 168 167 172 172 162 160 153 127 87 86 88
10 355 341 330 325 322 323 322 325 332 329 323 321 326 326 322 323 324 320 320 320 320 318 317 313 311 308 310 310 310 310 310 303 300 300 297 299 299 280 251 228 227 222 227 248 254 269 283 293 298 299 292 291 292 292 294 269 229 208 186 185 187 185 184 185 184 181 183 180 180 171 168 170 167 165 167 158 143 145 145 162 158 152 138 134
1 344 331 323 318 319 322 326 327 325 322 322 325 325 324 322 323 321 318 320 320 319 319 316 314 311 308 308 309 309 313 314 310 306 302 296 295 292 287 260 229 220 228 232 236 249 256 261 269 285 291 295 291 286 289 287 286 249 201 209 192 186 184 183 185 183 182 183 174 169 175 172 168 162 166 159 154 155 158 158 152 152 142 148 127
353 340 327 319 315 318 327 328 326 324 326 329 325 322 323 321 322 322 320 323 324 321 320 319 317 316 312 307 303 304 306 307 307 304 305 306 304 309 311 294 247 223 218 231 236 245 254 260 266 271 290 293 294 292 289 287 285 265 227 189 192 198 189 185 183 178 181 179 173 178 175 169 163 163 162 168 161 161 157 154 148 142 134 143 156
345 334 326 317 316 322 322 323 323 322 326 326 324 323 323 326 327 323 319 320 319 318 317 318 316 314 313 311 310 306 305 307 306 304 300 302 303 303 303 308 300 259 234 220 236 236 248 257 262 263 274 285 286 284 285 287 285 277 228 200 188 186 192 186 185 178 180 175 174 169 166 169 165 163 167 165 164 158 153 158 164 157 153 156 155
338 326 313 315 320 323 326 323 321 325 329 326 323 324 327 331 329 320 316 314 314 314 312 313 313 314 310 310 311 309 309 307 304 304 305 305 302 298 298 301 310 303 273 236 237 232 238 250 261 266 269 272 281 283 284 282 286 286 255 200 186 185 190 187 182 179 179 174 171 170 171 168 166 160 160 161 160 157 158 163 170 168 168 159 164
328 323 318 319 324 328 326 321 321 327 326 322 321 324 328 326 319 317 313 313 316 319 320 321 320 316 310 308 307 305 305 302 301 304 308 307 302 297 292 303 309 309 298 271 238 234 234 246 257 264 269 271 280 286 285 284 285 285 270 227 189 183 186 183 180 179 175 170 169 170 165 164 164 160 161 160 160 162 160 166 174 176 169 168 170
332 323 322 325 321 318 315 312 317 323 323 318 317 320 320 320 317 312 308 310 312 315 315 314 314 312 311 308 307 307 304 301 301 302 305 304 305 309 312 306 304 305 305 285 265 249 241 244 249 260 266 274 283 286 286 286 285 282 274 234 194 185 191 188 180 177 174 171 169 167 167 167 166 163 157 158 159 161 163 165 170 171 200 180 167
329 325 318 318 317 314 310 309 318 323 322 320 317 316 315 314 310 309 310 313 313 312 312 308 309 308 306 306 304 303 303 303 302 303 302 302 305 307 306 303 302 308 310 306 276 257 245 245 245 252 259 267 275 284 286 287 285 279 276 237 201 184 187 187 184 179 174 173 170 170 169 166 167 161 161 162 162 165 163 163 167 172 174 185 182
326 323 324 321 318 313 307 309 317 317 313 311 313 314 310 310 309 310 314 315 314 312 311 310 310 306 304 304 304 304 303 302 300 298 297 299 300 302 302 304 304 303 310 311 306 274 250 241 243 245 255 258 266 277 286 289 287 286 280 264 206 182 183 188 180 179 176 173 172 171 172 170 164 160 164 162 162 164 165 164 167 168 172 164 168
325 323 322 317 313 311 310 316 320 319 317 319 320 317 313 313 319 314 311 310 313 317 317 313 311 308 306 304 302 302 301 300 298 297 296 296 295 297 301 302 300 301 303 303 305 304 277 250 236 240 248 256 258 268 273 278 280 280 279 276 232 188 187 183 181 176 174 176 174 172 172 169 171 164 160 162 162 163 163 162 168 173 173 168 166
323 321 318 314 310 312 321 323 320 318 316 318 319 317 315 323 326 320 316 315 319 315 312 310 309 310 308 306 304 302 301 300 300 298 295 293 293 294 299 299 300 301 300 297 298 301 297 266 241 236 242 252 260 267 268 270 273 273 275 274 253 201 186 185 180 179 178 176 175 173 172 169 172 165 164 162 161 163 162 165 169 171 169 165 165
322 316 314 310 310 319 323 321 317 316 319 318 317 314 318 324 323 316 311 313 317 319 316 312 309 307 306 306 305 303 299 297 296 297 295 294 293 294 294 293 295 300 301 303 300 299 302 287 257 243 236 243 257 264 275 274 276 276 275 273 264 225 189 182 183 180 178 176 174 173 173 170 171 170 169 163 166 162 163 166 166 170 167 164 164
322 320 318 315 314 321 321 319 317 317 318 318 316 319 321 318 317 314 313 320 322 320 316 311 308 306 305 304 304 304 301 298 295 294 295 295 294 292 290 290 293 294 299 300 300 298 296 293 272 250 246 247 250 263 274 282 282 281 279 276 269 238 198 183 180 179 176 176 175 175 172 171 171 170 169 169 168 167 166 166 168 166 167 162 158
324 322 320 316 317 320 321 319 318 320 319 320 320 319 316 314 312 315 314 313 314 315 316 313 310 307 305 304 303 304 301 299 296 294 293 293 294 295 294 292 289 289 292 294 296 296 294 293 283 264 256 255 256 260 267 276 283 285 281 277 274 249 206 185 182 178 176 177 175 175 171 171 173 172 173 174 171 168 166 169 168 166 163 159 157
324 321 317 319 323 324 322 320 319 317 320 320 320 317 313 313 313 313 311 309 313 316 312 309 307 306 308 306 306 301 302 299 298 294 294 293 292 293 294 293 291 286 287 291 294 295 294 291 288 277 265 261 262 263 269 275 281 281 277 274 272 262 220 190 185 181 180 179 178 176 174 175 177 177 173 171 170 168 171 173 171 166 163 159 155
319 316 319 323 322 321 320 319 320 320 321 321 318 314 312 312 312 315 316 316 317 316 312 310 310 308 305 307 304 303 301 298 296 295 294 294 293 292 289 287 288 286 284 282 289 293 294 293 285 278 266 262 262 266 266 271 275 278 277 271 268 265 230 195 187 184 181 181 180 178 177 179 181 180 175 173 167 168 169 170 171 165 165 161 156
315 314 320 322 322 320 319 320 321 322 323 322 319 315 314 312 314 316 316 316 317 314 310 308 308 307 308 304 304 304 300 298 296 294 293 291 290 286 287 288 287 286 285 283 280 283 287 288 284 281 276 265 262 262 262 261 272 277 280 277 271 269 241 202 186 186 183 181 180 181 182 182 183 180 178 173 172 167 166 170 172 167 164 160 154
313 317 323 323 320 318 317 320 323 324 323 322 318 316 316 316 316 317 317 318 321 315 311 307 305 309 307 306 304 301 301 299 297 295 293 292 291 291 286 283 280 280 280 278 276 273 276 279 281 277 275 275 269 262 260 258 257 266 278 281 280 276 256 212 185 183 183 183 182 184 185 183 181 180 178 177 172 168 172 170 169 168 164 160 158
315 319 322 321 317 316 318 321 323 322 322 321 316 315 316 314 314 316 317 319 319 313 314 310 310 307 307 308 305 301 300 299 297 294 289 285 280 277 281 284 284 281 276 273 267 266 266 271 272 272 267 264 263 260 260 259 259 261 269 279 278 273 269 229 190 180 181 184 186 186 186 184 182 181 180 180 172 172 174 168 166 167 167 162 157
319 321 322 321 320 319 321 323 323 323 322 321 320 318 317 315 316 317 317 318 315 315 311 309 307 307 306 307 308 301 296 294 292 287 284 280 279 276 271 272 273 277 274 273 266 264 266 267 268 270 266 260 257 254 255 257 256 258 263 271 276 275 270 245 200 183 183 182 186 188 186 181 185 184 182 182 177 174 172 171 170 168 170 169 165
320 320 322 323 321 319 319 322 322 322 321 320 319 316 314 316 316 315 317 316 316 309 311 306 302 303 306 305 303 297 292 286 286 287 286 284 280 276 277 280 281 282 277 265 258 257 254 259 262 266 264 258 256 254 252 252 252 254 261 268 274 274 267 257 217 188 182 183 183 185 185 181 187 184 180 180 178 176 174 172 172 172 174 175 176
317 322 320 319 317 315 317 317 317 316 317 314 313 311 309 313 313 314 316 310 310 315 310 306 306 304 303 303 301 300 293 291 289 287 285 286 283 281 281 279 278 277 276 272 262 254 253 254 258 263 265 264 258 251 249 248 248 249 256 263 271 272 267 257 230 196 184 182 182 183 184 182 179 177 179 180 177 172 173 172 171 175 180 183 178
323 322 320 319 318 316 317 319 320 320 317 317 315 317 315 315 318 315 314 313 313 305 300 302 300 300 300 303 303 298 297 298 296 291 285 281 280 283 278 277 274 272 273 274 265 253 247 246 248 252 256 259 258 254 251 248 247 246 252 259 265 269 265 258 238 205 185 184 182 183 184 181 174 173 178 177 174 172 169 173 176 179 180 181 182
320 320 318 320 322 320 319 318 320 317 317 318 316 319 319 316 315 310 310 308 299 299 304 309 306 306 307 305 302 301 299 297 297 294 288 284 279 276 278 277 276 272 270 274 270 254 250 253 257 256 253 252 251 252 250 247 246 247 250 254 260 262 261 254 238 211 189 184 183 181 180 178 174 175 178 175 174 170 171 173 175 176 177 180 186
320 322 315 318 316 318 319 317 316 315 316 318 319 321 316 313 312 311 311 306 306 307 304 304 306 308 307 307 304 301 297 297 296 293 288 284 281 280 277 272 269 269 270 271 271 262 262 262 260 256 254 252 250 248 247 245 244 243 244 248 253 257 254 248 234 211 193 183 181 181 178 177 175 178 177 175 173 167 171 173 173 173 176 177 183
323 319 316 315 315 316 315 313 312 311 314 316 320 318 314 310 310 313 314 311 308 304 308 309 310 309 304 302 301 299 297 295 293 288 286 285 281 275 272 271 269 270 269 268 267 265 257 251 252 255 250 247 248 244 242 240 239 240 236 241 245 250 250 240 230 209 196 184 182 180 178 176 177 179 176 175 169 166 170 173 173 171 173 178 182
320 317 316 320 324 323 316 313 311 311 316 320 318 315 313 311 311 313 311 306 308 311 314 311 307 308 308 307 303 299 294 292 289 285 283 281 279 276 274 268 264 266 267 270 264 262 261 254 248 246 247 247 246 244 238 238 237 236 235 235 240 243 242 233 217 204 194 184 182 181 179 178 178 176 176 176 171 169 171 174 174 172 178 183 184
309 308 316 319 322 321 317 315 314 312 317 319 318 317 315 314 312 314 313 315 316 316 312 309 309 309 308 304 301 298 295 291 287 284 279 272 266 267 266 265 264 262 263 263 265 260 251 248 245 252 253 238 239 240 238 238 236 235 234 234 231 233 232 223 209 196 189 186 180 181 186 181 177 173 176 177 175 175 173 174 172 179 181 188 175
318 322 330 321 318 313 305 303 305 312 317 318 320 321 319 320 320 319 315 315 317 315 312 311 309 308 305 299 293 286 283 280 274 271 272 271 270 266 259 257 259 258 256 258 257 258 261 265 262 259 257 247 236 235 237 233 235 236 235 232 227 224 225 212 203 193 188 183 181 184 186 186 176 174 176 179 179 181 176 172 179 186 189 176 157
321 327 334 327 322 314 308 306 308 312 316 319 323 321 320 321 320 315 318 321 319 315 312 311 309 305 303 302 299 295 288 280 275 270 268 265 254 247 252 252 250 250 253 258 259 258 253 255 259 253 243 234 227 231 236 236 236 236 235 227 223 220 215 204 197 191 188 183 180 183 183 185 180 174 178 181 181 180 176 175 190 190 174 147 164
330 331 339 333 320 315 315 313 316 321 324 327 325 323 324 326 324 322 323 320 317 318 317 314 310 306 301 297 295 289 288 284 277 273 269 268 265 248 242 241 242 245 248 251 253 253 256 259 251 234 229 232 234 237 237 238 237 235 232 227 220 218 210 201 193 190 188 181 176 175 177 178 180 177 179 182 182 182 180 187 188 180 163 162 165
325 334 330 332 316 308 308 312 314 322 325 329 329 325 327 326 322 325 320 320 321 319 316 312 311 308 301 297 294 292 287 287 292 299 299 287 277 260 244 236 235 241 247 248 250 249 254 261 258 255 242 236 239 236 240 236 234 231 229 226 220 213 207 197 194 190 185 174 168 172 172 176 178 177 180 183 183 182 186 190 180 177 166 157 158
328 333 331 327 318 316 316 314 318 326 329 333 333 328 327 327 325 325 324 325 322 320 318 315 316 315 312 300 289 289 303 313 315 314 310 308 306 300 269 250 243 245 245 252 258 256 254 254 257 255 255 250 242 240 237 238 231 230 228 224 217 208 203 194 191 189 175 175 172 168 167 173 177 177 179 182 183 185 189 185 176 170 159 159 168
331 324 327 320 317 313 313 314 319 330 332 337 336 335 329 325 324 326 325 324 322 321 319 318 317 317 318 314 297 303 316 320 318 313 305 306 306 309 310 308 291 264 251 250 251 252 248 249 254 254 257 256 254 247 245 241 231 228 226 220 212 203 198 192 187 178 179 171 168 165 167 173 175 176 176 178 180 188 190 180 173 165 166 170 174
326 320 323 324 325 320 319 321 320 330 337 338 336 334 328 323 322 324 324 322 322 320 317 319 321 321 320 314 315 321 323 319 317 314 312 309 308 307 307 306 309 315 305 278 264 256 256 258 253 256 257 263 261 256 249 236 226 215 211 210 203 199 194 189 184 173 169 163 163 164 166 167 167 171 172 177 183 187 185 176 167 168 173 176 175
317 313 320 319 317 317 317 322 325 330 337 337 338 335 332 329 324 326 325 324 323 322 318 319 323 323 324 322 323 326 324 320 321 323 320 319 315 311 308 307 309 309 311 311 297 272 257 250 255 253 259 265 266 266 242 227 218 207 202 193 190 186 185 180 175 168 164 163 163 167 163 163 163 165 171 171 173 165 167 164 169 177 185 184 183
310 315 325 320 319 315 314 319 322 329 333 336 337 335 333 333 334 329 329 326 323 316 315 320 322 332 326 325 331 325 327 325 321 319 318 316 315 319 320 317 320 322 323 313 277 273 267 252 249 256 263 263 273 269 242 225 208 198 190 183 179 179 175 176 174 163 157 154 150 152 150 158 162 168 171 174 172 172 175 177 178 183 185 181 177
305 312 318 313 312 313 318 323 326 332 335 336 337 335 334 334 333 331 330 327 321 322 326 331 334 324 318 336 335 333 330 331 331 330 328 325 328 332 334 335 331 332 337 350 5 358 335 278 260 254 244 258 268 266 255 225 205 199 188 181 178 171 173 169 163 156 150 149 156 158 165 168 171 174 176 174 171 172 174 177 182 183 182 184 186
315 321 316 315 315 322 323 325 330 333 336 336 335 335 336 338 336 332 329 324 325 327 331 331 325 321 334 339 336 336 333 335 336 336 334 337 335 336 339 345 346 341 347 358 8 16 18 16 10 310 265 270 265 272 245 209 192 186 182 178 167 155 152 150 156 151 151 156 160 164 166 168 170 172 174 175 173 174 177 177 179 181 185 188 190